Tracking 30995 objects as of 5-Jul-2025
HD Live streaming from Space Station
objects crossing your sky now

DMSP 5D-3 F17 DEB

Track DMSP 5D-3 F17 DEB now!
10-day predictions


NORAD ID: 29637
Int'l Code: 2006-050BV
Perigee: 756.6 km
Apogee: 770.3 km
Inclination: 98.5 °
Period: 100.0 minutes
Semi major axis: 7134 km
RCS: 0.1292 m2 (medium)
Launch date: November 4, 2006
Source: United States (US)
Launch site: AIR FORCE WESTERN TEST RANGE (AFWTR)

Note: This is SATELLITE DEBRIS
Your satellite tracking list
Your tracking list is empty




NASA's NSSDC Master Catalog

Two Line Element Set (TLE):
1 29637U 06050BV  25186.58978294  .00003318  00000-0  10523-2 0  9990
2 29637  98.5291 226.7105 0009586  76.8895 283.3363 14.40662673965217
Source of the keplerian elements: AFSPC